Location: Round Knob
(37.2473°N, 88.7376°W)
Time: 11:20:49
(UTC+00:00)

CZ-4 R/B - Pass Details

Date: 29 October 2020
Orbit: 532 x 598 km, 97.7° (Epoch: 04 December)

Event Time Altitude Azimuth Distance (km) Brightness Sun altitude
Rises 23:45:47 0° 137° (SE) 2,701 4.5 -9.7°
Reaches altitude 10° 23:48:14 10° 123° (ESE) 1,803 3.5 -10.2°
Maximum altitude 23:51:18 23° 70° (ENE) 1,181 2.4 -10.8°
Drops below altitude 10° 23:54:22 10° 18° (NNE) 1,796 3.7 -11.4°
Sets 23:56:47 0° 3° (N) 2,687 4.7 -11.9°
